Location: Unspecified
(49.2170°N, 0.0000°E)
Time: 21:06:29
(UTC+00:00)

Transit 4A - Pass Details

Date: 21 June 2019
Orbit: 862 x 982 km, 66.8° (Epoch: 16 July)

Event Time Altitude Azimuth Distance (km) Brightness Sun altitude
Rises 12:27:42 0° 297° (WNW) 3,683 11.0 63.7°
Reaches altitude 10° 12:31:26 10° 318° (NW) 2,743 10.3 63.6°
Maximum altitude 12:35:18 16° 355° (N) 2,320 9.9 63.4°
Drops below altitude 10° 12:39:11 10° 33° (NNE) 2,742 10.2 63.2°
Sets 12:42:55 0° 54° (NE) 3,680 10.8 63.0°
